[[{"header":{"parameterUnit":"m.s-1","parameterCategory":1,"la1":30.2991,"la2":30.254,"lo1":-89.0895,"lo2":-89.0444,"dx":0.0017,"dy":0.0017,"nx":28,"ny":28,"refTime":"2023-01-02T15:00:00:Z","depth":0,"parameterNumber":2,"parameterNumberName":"U-component_of_WINDS"},"data":[0,0,0,0,0,0,0,0,0,0,0,0,0,0,0,0,0,0,0,0,0,0,0,0,0,0,0,0,0,0,0,0,0,0,0,0,0,0,0,0,0,0,0,0,0,0,0,0,0,0,0,0,0,0,0,0,0,0,-2.3081,-2.3083,0,-2.3267,-2.3269,-2.3271,-2.3353,-2.3353,-2.3352,-2.3352,-2.3544,-2.355,-2.3555,0,0,0,0,0,0,0,0,0,0,0,0,0,-2.2797,-2.2802,-2.3081,-2.3083,-2.3086,-2.3267,-2.3269,-2.3272,-2.3353,-2.3353,-2.3352,-2.3352,-2.3543,-2.3549,-2.3555,0,0,0,0,0,0,0,0,0,0,0,0,0,-2.2945,-2.2803,-2.3081,-2.3148,-2.3156,-2.3266,-2.327,-2.3273,-2.3353,-2.3353,-2.3352,-2.3352,-2.3541,-2.3548,-2.3556,-2.3614,0,0,-2.3581,-2.3584,0,0,0,0,0,0,0,0,-2.2937,-2.2956,-2.3136,-2.3143,-2.3152,-2.3286,-2.324,-2.3387,-2.3353,-2.3278,-2.3352,-2.3352,-2.3459,-2.3474,-2.351,-2.3623,-2.3632,-2.3582,-2.3587,-2.359,-2.3592,0,0,0,0,0,0,0,-2.2927,-2.2948,-2.3155,-2.3138,-2.3148,-2.3169,-2.319,-2.3268,-2.3369,-2.3285,-2.3291,-2.3312,-2.3464,-2.3502,-2.3515,-2.3635,-2.3581,-2.3589,-2.3594,-2.3597,-2.3806,-2.3806,0,0,0,0,0,0,-2.2905,-2.2939,-2.3149,-2.316,-2.3041,-2.3175,-2.3198,-2.3244,-2.3368,-2.3387,-2.3312,-2.3315,-2.3488,-2.3505,-2.3522,-2.3598,-2.359,-2.3598,-2.3602,-2.3805,-2.3806,-2.3806,0,0,0,0,0,0,-2.2899,-2.2923,-2.3141,-2.3052,-2.3081,-2.318,-2.3231,-2.3248,-2.3286,-2.3389,-2.3407,-2.3332,-2.3488,-2.351,-2.3591,-2.3606,-2.3601,-2.3609,-2.3804,-2.3805,-2.3806,-2.3751,0,0,0,0,0,0,-2.289,-2.292,-2.2943,-2.3051,-2.3085,-2.3207,-2.3232,-2.3252,-2.3299,-2.3305,-2.3413,-2.343,-2.349,-2.3578,-2.3599,-2.3617,-2.3615,-2.3803,-2.3804,-2.3806,-2.3752,-2.375,-2.3748,0,0,0,0,0,-2.288,-2.2921,-2.2944,-2.2969,-2.3116,-2.3207,-2.3227,-2.3294,-2.33,-2.3324,-2.339,-2.3427,-2.3601,-2.3586,-2.361,-2.363,-2.3802,-2.3804,-2.3806,-2.3753,-2.375,-2.3748,0,0,0,0,0,0,-2.2812,-2.2936,-2.2963,-2.304,-2.3112,-2.3221,-2.3253,-2.3289,-2.3362,-2.3364,-2.3445,-2.3469,-2.3542,-2.3594,-2.3575,-2.3693,-2.3705,-2.3711,-2.3656,-2.3655,-2.3653,-2.3639,-2.3622,0,0,0,0,0,-2.2806,-2.2869,-2.2974,-2.3032,-2.3067,-2.3153,-2.3196,-2.3241,-2.332,-2.3351,-2.3423,-2.3498,-2.357,-2.3615,-2.3687,-2.376,-2.3784,-2.3786,-2.3784,-2.3782,-2.3787,-2.3829,-2.3831,-2.3812,-2.3812,-2.3812,0,0,-2.2794,-2.287,-2.2905,-2.302,-2.3082,-2.3146,-2.3179,-2.3245,-2.3294,-2.3361,-2.3441,-2.3496,-2.3586,-2.3662,-2.37,-2.3708,-2.3797,-2.3784,-2.3782,-2.3788,-2.3831,-2.3833,-2.3834,-2.3813,-2.3813,-2.3812,0,0,-2.2806,-2.2869,-2.2924,-2.2985,-2.3077,-2.3134,-2.3147,-2.325,-2.3289,-2.337,-2.3422,-2.3481,-2.3603,-2.3665,-2.3712,-2.3745,-2.3782,-2.3767,-2.3758,-2.3798,-2.3799,-2.3801,-2.3813,-2.3817,-2.3771,-2.3771,-2.3771,0,-2.278,-2.2878,-2.2948,-2.3012,-2.3061,-2.3124,-2.318,-2.3236,-2.3347,-2.338,-2.3387,-2.3541,-2.3606,-2.3698,-2.3706,-2.3742,-2.376,-2.3755,-2.3793,-2.3796,-2.3799,-2.3811,-2.3816,-2.3768,-2.3769,-2.3769,-2.3769,0,-2.2842,-2.2909,-2.2942,-2.3047,-2.31,-2.316,-2.3239,-2.3284,-2.3325,-2.3381,-2.3463,-2.3543,-2.3631,-2.3656,-2.3697,-2.3754,-2.3757,-2.3778,-2.3791,-2.3797,-2.381,-2.3815,-2.3765,-2.3766,-2.3766,-2.3767,0,0,-2.2817,-2.2958,-2.2969,-2.3018,-2.3124,-2.3177,-2.324,-2.3326,-2.3363,-2.3437,-2.3492,-2.3593,-2.3613,-2.3667,-2.3715,-2.375,-2.3772,-2.3767,-2.3771,-2.3765,-2.384,-2.3823,-2.3827,-2.3796,-2.3797,-2.3798,-2.3832,0,-2.2843,-2.2957,-2.3021,-2.3108,-2.3171,-2.3232,-2.3286,-2.3357,-2.3411,-2.3473,-2.3534,-2.3604,-2.3625,-2.3658,-2.3695,-2.3761,-2.3788,-2.3759,-2.3848,-2.3851,-2.3824,-2.3834,-2.3817,-2.3845,-2.3838,-2.3839,-2.3839,0,-2.2888,-2.2961,-2.3054,-2.3152,-2.3181,-2.3229,-2.3313,-2.3371,-2.3453,-2.349,-2.3548,-2.3596,-2.3665,-2.3672,-2.3768,-2.3747,-2.3788,-2.3825,-2.3828,-2.3839,-2.3845,-2.3846,-2.3856,-2.386,-2.3848,-2.3847,-2.3847,0,-2.286,-2.2981,-2.3053,-2.3092,-2.3209,-2.3241,-2.3291,-2.3372,-2.342,-2.3493,-2.3525,-2.3605,-2.3649,-2.3711,-2.3779,-2.3778,-2.3868,-2.3882,-2.3902,-2.39,-2.3918,-2.3916,-2.3935,-2.3943,-2.3943,-2.3943,-2.3943,0,-2.2883,-2.2938,-2.3042,-2.3085,-2.3149,-2.3222,-2.3283,-2.3338,-2.341,-2.3466,-2.3523,-2.3575,-2.3662,-2.3724,-2.3778,-2.3849,-2.3869,-2.3901,-2.3915,-2.3896,-2.3892,-2.3924,-2.3924,-2.3944,-2.3944,-2.3944,-2.3944,0,-2.2863,-2.2935,-2.3016,-2.312,-2.3147,-2.3189,-2.3278,-2.3323,-2.3379,-2.345,-2.347,-2.356,-2.3636,-2.371,-2.3813,-2.3849,-2.392,-2.3938,-2.3892,-2.39,-2.3916,-2.3913,-2.3956,-2.3965,-2.3966,-2.3966,-2.3966,0,-2.2873,-2.2916,-2.3024,-2.3065,-2.3113,-2.3179,-2.3228,-2.3302,-2.335,-2.3446,-2.348,-2.356,-2.3628,-2.3748,-2.3822,-2.3901,-2.3922,-2.3931,-2.3934,-2.3914,-2.3922,-2.3919,-2.3924,-2.3929,-2.3929,-2.3928,-2.3928,0,-2.2882,-2.2915,-2.2983,-2.3062,-2.3118,-2.3185,-2.3253,-2.3284,-2.3371,-2.3422,-2.3501,-2.3553,-2.3658,-2.3737,-2.3824,-2.3877,-2.3917,-2.3926,-2.3935,-2.3917,-2.3889,-2.3904,-2.3887,-2.3925,-2.3926,-2.3926,-2.3926,-2.3926,-2.2878,-2.2919,-2.3001,-2.3074,-2.3133,-2.3195,-2.3243,-2.3305,-2.3371,-2.3462,-2.3501,-2.358,-2.3661,-2.3783,-2.3834,-2.3898,-2.3908,-2.392,-2.3924,-2.3926,-2.3922,-2.3878,-2.3914,-2.3914,-2.3914,-2.3914,-2.3915,0,-2.2891,-2.2946,-2.3012,-2.3106,-2.3163,-2.3195,-2.3272,-2.3319,-2.3387,-2.3459,-2.3524,-2.3614,-2.3691,-2.3771,-2.3853,-2.3888,-2.3909,-2.3907,-2.3906,-2.3917,-2.3908,-2.3892,-2.3889,-2.3889,-2.3889,-2.3889,-2.3889,-2.3889,-2.2904,-2.2975,-2.3018,-2.3119,-2.3175,-2.3252,-2.3294,-2.3352,-2.3409,-2.3507,-2.357,-2.3622,-2.3697,-2.3785,-2.3857,-2.3879,-2.3906,-2.3899,-2.3926,-2.3916,-2.3918,-2.3919,-2.3905,-2.3905,-2.3905,-2.393,-2.3931,-2.3931]},{"header":{"parameterUnit":"m.s-1","parameterCategory":1,"la1":30.2991,"la2":30.254,"lo1":-89.0895,"lo2":-89.0444,"dx":0.0017,"dy":0.0017,"nx":28,"ny":28,"refTime":"2023-01-02T15:00:00:Z","depth":0,"parameterNumber":3,"parameterNumberName":"V-component_of_WINDS"},"data":[0,0,0,0,0,0,0,0,0,0,0,0,0,0,0,0,0,0,0,0,0,0,0,0,0,0,0,0,0,0,0,0,0,0,0,0,0,0,0,0,0,0,0,0,0,0,0,0,0,0,0,0,0,0,0,0,0,0,6.28,6.2802,0,6.2969,6.2971,6.2973,6.3008,6.3007,6.3005,6.3004,6.3173,6.3179,6.3184,0,0,0,0,0,0,0,0,0,0,0,0,0,6.2508,6.2513,6.28,6.2802,6.2804,6.2969,6.2971,6.2973,6.3008,6.3007,6.3005,6.3004,6.3171,6.3178,6.3185,0,0,0,0,0,0,0,0,0,0,0,0,0,6.2651,6.2514,6.28,6.2842,6.2847,6.2968,6.2971,6.2974,6.3008,6.3006,6.3005,6.3003,6.3169,6.3177,6.3186,6.3276,0,0,6.3212,6.3215,0,0,0,0,0,0,0,0,6.2643,6.2662,6.2833,6.2839,6.2845,6.2966,6.293,6.3075,6.3009,6.2947,6.3004,6.3002,6.3105,6.3119,6.3155,6.3284,6.3291,6.3212,6.3218,6.3221,6.3224,0,0,0,0,0,0,0,6.2633,6.2655,6.2867,6.2836,6.2843,6.2852,6.287,6.2958,6.3034,6.2952,6.2955,6.2975,6.3108,6.3146,6.3159,6.3294,6.3212,6.322,6.3225,6.3228,6.351,6.3513,0,0,0,0,0,0,6.2616,6.2646,6.2862,6.2872,6.2738,6.2859,6.2879,6.2929,6.3034,6.3048,6.2976,6.2976,6.3133,6.3149,6.3165,6.3281,6.3221,6.3229,6.3234,6.3508,6.3511,6.3513,0,0,0,0,0,0,6.2609,6.2635,6.2855,6.276,6.2789,6.2866,6.2921,6.2933,6.2971,6.3052,6.3066,6.3001,6.3132,6.3153,6.325,6.3287,6.3233,6.3241,6.3505,6.3509,6.3512,6.3512,0,0,0,0,0,0,6.2601,6.2632,6.2667,6.2761,6.2794,6.2937,6.2923,6.2938,6.2986,6.2987,6.3079,6.3092,6.3132,6.3237,6.3258,6.3298,6.3247,6.3502,6.3507,6.3511,6.3509,6.3515,6.352,0,0,0,0,0,6.259,6.2658,6.2669,6.2694,6.2839,6.2939,6.2958,6.3003,6.2989,6.3026,6.3078,6.3089,6.3279,6.3246,6.327,6.3314,6.35,6.3506,6.3511,6.3506,6.3514,6.352,0,0,0,0,0,0,6.2565,6.2671,6.2684,6.2784,6.2853,6.2944,6.2991,6.3009,6.3081,6.3079,6.3131,6.3151,6.3246,6.3289,6.325,6.3409,6.3389,6.34,6.3377,6.3385,6.3391,6.3379,6.3254,0,0,0,0,0,6.2571,6.2644,6.2732,6.2813,6.2847,6.2913,6.2958,6.2988,6.306,6.3088,6.3148,6.3216,6.3292,6.3341,6.3414,6.3515,6.3537,6.3557,6.3563,6.3567,6.3576,6.3636,6.3647,6.3531,6.3531,6.3531,0,0,6.2584,6.2652,6.2694,6.2809,6.2866,6.2941,6.2937,6.3015,6.3071,6.31,6.3196,6.3242,6.3322,6.3423,6.347,6.3462,6.3613,6.3574,6.3577,6.3583,6.3643,6.3654,6.3664,6.3535,6.3534,6.3534,0,0,6.2647,6.2704,6.278,6.2837,6.2924,6.2968,6.2986,6.3077,6.311,6.3208,6.3232,6.3299,6.3427,6.3485,6.3531,6.3621,6.3636,6.3643,6.3673,6.3732,6.3741,6.3749,6.3784,6.3796,6.3652,6.3652,6.3652,0,6.2652,6.2767,6.2815,6.2895,6.2946,6.2978,6.3055,6.3108,6.3214,6.3248,6.3238,6.3404,6.346,6.3576,6.3598,6.3633,6.3657,6.3633,6.3736,6.3745,6.3753,6.3787,6.38,6.3652,6.3652,6.3652,6.3652,0,6.2771,6.285,6.29,6.3005,6.3061,6.3138,6.32,6.3251,6.3277,6.3323,6.3424,6.3493,6.3583,6.3613,6.3636,6.3734,6.3727,6.3725,6.3707,6.3764,6.3797,6.381,6.3653,6.3653,6.3653,6.3653,0,0,6.282,6.2954,6.2972,6.3022,6.3121,6.3184,6.3263,6.3354,6.3399,6.3471,6.3541,6.3651,6.3652,6.3704,6.3736,6.3787,6.3858,6.378,6.3783,6.3794,6.3973,6.3974,6.3989,6.3868,6.387,6.3872,6.3967,0,6.2897,6.3043,6.3091,6.3212,6.3288,6.3321,6.3391,6.346,6.3506,6.3576,6.3626,6.3705,6.3699,6.3732,6.3783,6.3838,6.3895,6.3832,6.3934,6.3937,6.3915,6.4005,6.4007,6.4092,6.398,6.3982,6.3984,0,6.3006,6.3084,6.3213,6.3308,6.3342,6.3404,6.3493,6.356,6.364,6.367,6.3731,6.3759,6.3845,6.3821,6.3941,6.3898,6.3943,6.3976,6.3981,6.3993,6.3965,6.4023,6.412,6.4134,6.4004,6.4002,6.4001,0,6.3034,6.317,6.3267,6.3308,6.3419,6.3463,6.3511,6.359,6.3643,6.372,6.3756,6.3841,6.3888,6.3954,6.4006,6.3983,6.4123,6.4102,6.4152,6.415,6.418,6.4178,6.4289,6.4205,6.4205,6.4205,6.4205,0,6.3116,6.3194,6.3281,6.334,6.343,6.3485,6.3573,6.3623,6.3693,6.3763,6.3796,6.3861,6.3924,6.3998,6.4038,6.4134,6.4154,6.4182,6.4192,6.418,6.4177,6.4211,6.4207,6.4208,6.4208,6.4207,6.4206,0,6.3162,6.3223,6.3331,6.3429,6.3456,6.3518,6.3602,6.3662,6.371,6.3799,6.3823,6.3898,6.3987,6.4045,6.4157,6.4185,6.429,6.4297,6.4264,6.4269,6.4317,6.4313,6.4455,6.4478,6.4377,6.4378,6.4378,0,6.3211,6.3273,6.338,6.343,6.348,6.356,6.3616,6.3673,6.3729,6.3828,6.3876,6.3967,6.4044,6.4185,6.4249,6.4336,6.4348,6.4392,6.4361,6.4348,6.4352,6.4349,6.4357,6.4397,6.4398,6.4398,6.4399,0,6.3294,6.3322,6.3401,6.3493,6.3559,6.3632,6.3706,6.3746,6.3816,6.3878,6.3971,6.403,6.4148,6.4239,6.4333,6.4383,6.4404,6.4408,6.4425,6.4415,6.4394,6.4409,6.428,6.4405,6.4404,6.4404,6.4404,6.4403,6.3345,6.3403,6.3489,6.3577,6.364,6.3709,6.3772,6.3829,6.3908,6.401,6.4038,6.4136,6.4218,6.4347,6.4398,6.4476,6.4471,6.4494,6.45,6.4506,6.4508,6.438,6.4493,6.4493,6.4492,6.4492,6.4492,0,6.3432,6.349,6.357,6.3675,6.3745,6.3761,6.3844,6.3902,6.3988,6.4063,6.414,6.4248,6.4338,6.4411,6.4504,6.4552,6.4565,6.4575,6.4573,6.4585,6.4506,6.4484,6.4564,6.4564,6.4564,6.4564,6.4564,6.4564,6.3485,6.3587,6.3625,6.3759,6.3816,6.3913,6.3961,6.4026,6.4087,6.4207,6.4283,6.4331,6.4406,6.4506,6.4589,6.4609,6.4642,6.4652,6.4673,6.4598,6.459,6.4582,6.4562,6.4658,6.4658,6.4747,6.4747,6.4748]}]]